Location: Manning Provincial Park
(49.0805°N, 120.7632°W)
Time: 16:55:49
(UTC-08:00)

Envisat - Visible Passes

Search period start: 22 January 2019 00:00
Search period end: 01 February 2019 00:00
Orbit: 764 x 766 km, 98.2° (Epoch: 22 January)

Date Brightness Start Highest point End Pass type
(mag) Time Alt. Az. Time Alt. Az. Time Alt. Az.
22 Jan 4.2 17:13:44 10° ESE 17:17:21 20° ENE 17:20:58 10° NNE visible
22 Jan 3.2 18:50:48 10° S 18:55:52 71° WSW 19:00:59 10° NNW visible
22 Jan 6.2 20:35:19 10° W 20:35:50 10° W 20:36:20 10° WNW visible
23 Jan 5.2 06:55:51 10° NNE 07:00:19 30° E 07:04:45 10° SSE visible
23 Jan 3.0 18:14:11 10° SSE 18:19:09 59° ENE 18:24:10 10° N visible
23 Jan 5.4 19:54:42 10° SW 19:58:34 22° W 20:02:26 10° NW visible
24 Jan 6.0 06:20:16 10° NE 06:23:09 15° E 06:26:01 10° ESE visible
24 Jan 3.7 17:38:14 10° ESE 17:42:37 30° ENE 17:47:02 10° N visible
24 Jan 4.2 19:16:41 10° S 19:21:31 43° W 19:26:21 10° NNW visible
25 Jan 3.0 18:39:34 10° SSE 18:44:39 86° WSW 18:49:47 10° NNW visible
25 Jan 6.0 20:22:09 10° WSW 20:24:26 13° W 20:26:45 10° WNW visible
26 Jan 5.6 06:44:52 10° NE 06:49:00 25° E 06:53:08 10° SSE visible
26 Jan 3.2 18:03:08 10° SE 18:08:00 48° ENE 18:12:52 10° N visible
26 Jan 5.1 19:43:01 10° SSW 19:47:14 26° W 19:51:30 10° NW visible
27 Jan 6.3 06:09:53 10° ENE 06:11:47 12° E 06:13:41 10° ESE visible
27 Jan 4.0 17:27:24 10° ESE 17:31:31 26° ENE 17:35:39 10° N visible
27 Jan 3.8 19:05:18 10° S 19:10:15 53° W 19:15:14 10° NNW visible
28 Jan 2.9 18:28:22 10° SSE 18:33:27 78° ENE 18:38:34 10° NNW visible
28 Jan 5.8 20:09:58 10° SW 20:13:05 16° W 20:16:12 10° NW visible
29 Jan 5.9 06:33:58 10° NE 06:37:41 20° E 06:41:23 10° SE visible
29 Jan 3.4 17:52:09 10° SE 17:56:51 39° ENE 18:01:34 10° N visible
29 Jan 4.7 19:31:25 10° SSW 19:35:57 32° W 19:40:30 10° NNW visible
30 Jan 3.4 18:53:58 10° S 18:59:00 65° WSW 19:04:05 10° NNW visible
31 Jan 5.1 06:58:54 10° NNE 07:03:29 32° E 07:08:01 10° SSE visible
31 Jan 3.0 18:17:15 10° SSE 18:22:16 64° ENE 18:27:19 10° N visible
31 Jan 5.5 19:58:04 10° SW 20:01:45 20° W 20:05:26 10° NW visible
